CST,Max TemperatureF,Mean TemperatureF,Min TemperatureF,Max Dew PointF,MeanDew PointF,Min DewpointF,Max Humidity, Mean Humidity, Min Humidity, Max Sea Level PressureIn, Mean Sea Level PressureIn, Min Sea Level PressureIn, Max VisibilityMiles, Mean VisibilityMiles, Min VisibilityMiles, Max Wind SpeedMPH, Mean Wind SpeedMPH, Max Gust SpeedMPH,PrecipitationIn, CloudCover, Events, WindDirDegrees
2012-12-1,,,,,,,,,,,,,,,,,,,,,,
2012-12-2,,,,,,,,,,,,,,,,,,,,,,
2012-12-3,,,,,,,,,,,,,,,,,,,,,,
2012-12-4,,,,,,,,,,,,,,,,,,,,,,
2012-12-5,67,64,61,64,63,61,100,96,87,30.15,30.10,30.04,10,10,7,14,5,,0.01,7,,357
2012-12-6,70,64,58,65,61,59,100,96,73,30.03,29.99,29.93,10,6,0,6,3,,0.01,7,Fog,342
2012-12-7,76,63,50,66,59,50,100,89,61,29.98,29.93,29.89,10,6,0,7,1,,0.02,3,Fog,162
2012-12-8,75,65,55,69,63,56,100,90,66,29.99,29.94,29.91,10,7,0,10,3,,0.01,4,Fog-Rain,151
2012-12-9,82,73,64,74,70,64,100,92,64,29.98,29.92,29.87,10,10,4,16,6,21,0.00,4,,157
2012-12-10,73,59,44,73,57,38,100,93,79,30.05,29.91,29.76,10,10,1,21,10,29,0.00,5,Rain-Thunderstorm,319
2012-12-11,53,46,39,40,37,35,93,74,52,30.19,30.11,30.04,10,10,10,12,6,20,0.00,0,,10
2012-12-12,58,48,37,40,34,25,99,66,28,30.33,30.27,30.19,10,10,10,13,6,18,0.00,1,,357
2012-12-13,64,48,32,41,35,32,100,70,30,30.39,30.31,30.25,10,10,10,8,2,,0.00,0,,49
2012-12-14,70,53,36,58,50,37,100,86,60,30.28,30.18,30.06,10,10,7,15,4,20,0.00,0,,112
2012-12-15,77,68,59,68,65,59,100,90,71,30.06,29.99,29.94,10,10,10,18,8,24,0.00,7,,138
2012-12-16,79,72,64,70,67,63,100,95,69,29.93,29.87,29.81,10,10,2,17,7,25,0.00,7,Rain-Thunderstorm,141
2012-12-17,70,60,50,67,58,46,100,86,52,29.95,29.85,29.79,10,9,0,14,4,23,0.00,2,Fog-Rain,272
2012-12-18,72,58,44,58,52,44,100,83,49,30.02,29.97,29.94,10,10,10,13,4,16,0.00,0,,149
2012-12-19,77,67,57,73,66,57,100,93,71,29.98,29.91,29.80,10,10,7,20,9,25,0.00,3,,143
2012-12-20,75,57,38,75,44,29,100,63,37,30.37,30.09,29.80,10,10,7,33,16,48,0.00,3,Rain,295
2012-12-21,61,47,33,38,29,18,100,60,22,30.50,30.41,30.36,10,10,10,15,7,23,0.00,0,,318
2012-12-22,65,49,33,49,37,24,100,70,21,30.43,30.34,30.21,10,10,7,10,2,,0.00,0,,157
2012-12-23,69,60,50,66,59,47,98,88,77,30.21,30.06,29.95,10,10,10,10,5,,0.00,6,,155
2012-12-24,78,70,61,70,66,62,100,90,62,29.97,29.90,29.84,10,9,4,16,8,24,0.00,4,,219
2012-12-25,76,61,45,71,62,38,100,87,63,29.89,29.69,29.53,10,9,1,26,12,40,0.00,5,Rain-Thunderstorm,188
2012-12-26,45,40,35,38,36,34,100,83,74,30.19,30.10,29.90,10,10,10,20,13,26,0.00,5,,328
2012-12-27,55,44,32,49,42,32,100,87,69,30.19,30.08,29.96,10,9,1,12,4,18,0.00,6,,77
2012-12-28,69,58,47,69,58,44,100,93,84,30.05,29.87,29.71,10,9,1,21,11,29,0.00,8,Rain-Thunderstorm,149
2012-12-29,48,42,37,44,35,31,87,72,51,30.45,30.29,30.06,10,10,10,21,12,24,0.00,3,,327
2012-12-30,53,44,34,41,34,30,96,74,42,30.52,30.42,30.31,10,10,10,12,4,16,0.00,0,,76
2012-12-31,66,54,41,61,51,36,94,80,69,30.31,30.16,30.01,10,10,10,16,5,24,0.00,8,,108